Regional Weather Roundup
Issued by NWS Burlington, VT

Home | Current Version | Previous Version | Text Only | Print | Product List | Glossary On
Versions: 1 2 3 4 5 6 7 8 9 10 11 12 13 14 15 16 17 18 19 20 21 22 23 24 25 26 27 28 29 30 31 32 33 34 35 36 37 38 39 40 41 42 43 44 45 46 47 48 49 50
342
ASUS41 KBTV 292130
RWRBTV
VERMONT REGIONAL WEATHER ROUNDUP
NATIONAL WEATHER SERVICE BURLINGTON VT
500 PM EDT SAT APR 29 2017

NOTE: "FAIR" INDICATES FEW OR NO CLOUDS BELOW 12,000 FEET WITH NO
SIGNIFICANT WEATHER AND/OR OBSTRUCTIONS TO VISIBILITY.

* THESE REPORTS ARE NOT UNDER NWS QUALITY CONTROL AND/OR DO NOT
  REPORT WEATHER SUCH AS PRECIPITATION AND FOG.

VTZ001>019-292200-
_____VERMONT_____


CITY           SKY/WX    TMP DP  RH WIND       PRES   REMARKS
BURLINGTON     PTSUNNY   72  41  32 W15G23    29.91R
MONTPELIER     MOSUNNY   69  45  41 W16G28    29.94R
MORRISVILLE    MOSUNNY   67  42  40 NW12G20   29.91S
LYNDONVILLE*   FAIR      66  42  42 W18G31    29.89R
MIDDLEBURY*    CLOUDY    69  46  42 N8        29.95R
RUTLAND*       CLOUDY    69  48  47 NW15      29.95R
SPRINGFIELD    CLOUDY    71  47  42 W16G25    29.92R
HIGHGATE*      FAIR      66  38  36 NW13G23   29.94R HAZE
NEWPORT*       FAIR      63  42  47 W13G25    29.91R
BENNINGTON     CLOUDY    64  47  53 SW12G18   30.03R
SUTTON*          N/A     64 N/A N/A MISG        N/A
ISLAND POND*     N/A     64 N/A N/A NW14        N/A
GALLUP MILLS*    N/A     64 N/A N/A MISG        N/A
UNION VILLAGE*   N/A     72 N/A N/A MISG        N/A
MT. MANSFIELD*   N/A     54 N/A N/A NW35G56     N/A

_____LAKE CHAMPLAIN_____


CITY           SKY/WX    TMP DP  RH WIND       PRES   REMARKS
BURTON ISLAND*   N/A     59  43  55 NW10        N/A
COLCHESTER RF*   N/A     63  41  45 NW22G28     N/A
DIAMOND ISL*     N/A     70  37  30 SW21G26     N/A

$$

NYZ007-026>031-035-052-083-087-292200-
_____NORTHERN NEW YORK_____


CITY           SKY/WX    TMP DP  RH WIND       PRES   REMARKS
PLATTSBURGH    PTSUNNY   72  39  30 NW12G23   29.91R
SARANAC LAKE   MOSUNNY   62  41  46 W13G24    29.97R
MASSENA        CLOUDY    63  35  35 NW18G29   30.01R
OGDENSBURG*    FAIR      63  43  48 SW14G20   30.04R
POTSDAM*       PTSUNNY   63  46  55 W15G23    30.02R
STARK FALLS*     N/A     57 N/A N/A W14         N/A
WATERTOWN      CLOUDY    49  38  65 SW18G29   30.11R
ALBANY         CLOUDY    66  48  52 W13G25    30.05R
GLENS FALLS    CLOUDY    69  45  41 SW15G21   29.98R

$$
NHZ002-005-011-292200-
_____NEW HAMPSHIRE_____


CITY           SKY/WX    TMP DP  RH WIND       PRES   REMARKS
LEBANON        CLOUDY    72  48  42 W15G25    29.90R
KEENE          CLOUDY    73  53  49 W13G18    29.93R
MT WASHINGTON  PTSUNNY   43  39  87 W59G69      N/A  WCI  29
PLYMOUTH       FAIR      73  45  37 W13G22    29.86R
WHITEFIELD     CLOUDY    70  43  37 W15G23    29.85S

$$

_____REGIONAL QUEBEC LOCATIONS_____


CITY           SKY/WX    TMP DP  RH WIND       PRES   REMARKS
MONTREAL       MOSUNNY   64  34  32 W21G29    29.93R
QUEBEC CITY    MOSUNNY   55  28  35 NW25G35   29.87R
SHERBROOKE     SUNNY     64  34  32 W30G44    29.85R

_____REGIONAL ONTARIO LOCATIONS_____


CITY           SKY/WX    TMP DP  RH WIND       PRES   REMARKS
OTTAWA         MOSUNNY   57  28  33 W25G31    30.05R

______KEY______
VSB  - VISIBILITY IN MILES
WCI  - WIND CHILL INDEX
HX   - HEAT INDEX
$$
NNNN




USA.gov is the U.S. government's official web portal to all federal, state and local government web resources and services.